Location: Krakow
(50.0212°N, 19.9423°E)
Time: 00:25:08
(UTC+02:00)

NOAA 15 - Pass Details

Date: 18 September 2024
Orbit: 795 x 810 km, 98.6° (Epoch: 10 October)

Event Time Altitude Azimuth Distance (km) Brightness Sun altitude
Rises 19:31:04 0° 173° (S) 3,288 7.6 -7.9°
Reaches altitude 10° 19:33:24 10° 177° (S) 2,362 6.9 -8.3°
Maximum altitude 19:38:35 63° 258° (WSW) 889 5.1 -9.1°
Drops below altitude 10° 19:43:47 10° 340° (NNW) 2,378 7.5 -9.9°
Sets 19:46:10 0° 343° (NNW) 3,313 8.3 -10.3°
